Location: Gebenbach
(49.5378°N, 11.8735°E)
Time: 03:31:08
(UTC+00:00)

Cosmos 1980 Rocket - Pass Details

Date: 29 October 2020
Orbit: 831 x 848 km, 71.0° (Epoch: 24 November)

Event Time Altitude Azimuth Distance (km) Brightness Sun altitude
Rises 19:14:14 0° 224° (SW) 3,379 5.6 -32.6°
Reaches altitude 10° 19:16:45 10° 230° (SW) 2,446 4.9 -33.0°
Enters shadow 19:21:21 46° 277° (W) 1,110 3.0 -33.7°
